Regional Weather Roundup
Issued by NWS

Home | Current Version | Previous Version | Graphics & Text | Print | Product List | Glossary On
Versions: 1 2 3 4 5 6 7 8 9 10 11 12 13 14 15 16 17 18 19 20 21 22 23 24 25 26 27 28 29 30 31 32 33 34 35 36 37 38 39 40 41 42 43 44 45 46 47 48 49 50
000
ASUS43 KMPX 241810
RWRMN
WEATHER ROUNDUP FOR MINNESOTA
NATIONAL WEATHER SERVICE TWIN CITIES/CHANHASSEN MN
1200 PM CST SAT FEB 24 2018


NOTE: "FAIR" INDICATES FEW OR NO CLOUDS BELOW 12,000 FEET WITH NO
SIGNIFICANT WEATHER AND/OR OBSTRUCTIONS TO VISIBILITY. N/A MEANS
CURRENT SKY AND/OR WEATHER CONDITIONS ARE NOT AVAILABLE.

MNZ060>063-068>070-241900-
   Twin Cities Metro

CITY           SKY/WX    TMP DP  RH WIND       PRES   REMARKS
TWIN CITIES    CLOUDY    26  20  77 E8        30.00F WCI  18
6HR MIN TEMP:   8; 6HR MAX TEMP:  26;

ST PAUL        PTSUNNY   25  19  78 NE6       30.02F HAZE    WCI  18
CRYSTAL        PTSUNNY   24  17  74 NE6       29.99F HAZE    WCI  17
BLAINE         PTSUNNY   23  21  93 NE6       30.01F FOG     WCI  16
LAKEVILLE      FAIR      18  18 100 NE7       29.96F FOG     WCI   8
EDEN PRAIRIE   CLOUDY    26  18  71 E9        29.96F HAZE    WCI  17
6HR MIN TEMP:   3; 6HR MAX TEMP:  26;

SOUTH ST PAUL  FAIR      24  22  92 NE6       30.00F FOG     WCI  17
LAKE ELMO      FAIR     N/A N/A N/A NE7       30.01F HAZE
$$
MNZ001>005-007-008-013>017-022>024-027-028-241900-
   Northwest Minnesota

CITY           SKY/WX    TMP DP  RH WIND       PRES   REMARKS
BEMIDJI        FAIR      17   8  70 SE8       29.99F WCI   6
HALLOCK        FAIR      12   9  85 S23       29.94F FOG     WCI  -7
ROSEAU         FAIR      18   9  68 S9        29.96F WCI   6
WARROAD        FAIR      21   9  58 S7        29.96F WCI  13
THIEF RVR FALL FAIR      16   6  65 S14       29.97F WCI   2
CROOKSTON      FAIR      10   5  79 S17       29.99F WCI  -7
FOSSTON        FAIR      23   9  54 S6        29.96F WCI  16
DETROIT LAKES  FAIR      16  12  86 SE10      29.98F WCI   3
MOORHEAD       FAIR      10   7  85 S9        30.00F WCI  -2
PARK RAPIDS    FAIR      14   8  77 SE6       29.98F WCI   5
MAHNOMEN       FAIR      20   9  64 S9        29.97S WCI   9
$$
MNZ006-009>011-018-025>026-241900-
   North Central Minnesota

CITY           SKY/WX    TMP DP  RH WIND       PRES   REMARKS
BAUDETTE       FAIR      22   8  55 S10       29.96F WCI  11
FLAG ISLAND    FAIR      10   5  79 SE12      29.96F WCI  -4
INTL FALLS     FAIR      24  10  55 SE3       30.00F
6HR MIN TEMP: -11; 6HR MAX TEMP:  24;

WASKISH        FAIR      25   9  50 S12G17    29.99F WCI  14
LONGVILLE      FAIR      16   9  73 SE3       30.02F
CRANE LAKE     FAIR      23  12  63 SE3       30.04F
ORR            FAIR      25   9  50 S7        29.99F WCI  17
COOK             N/A     25  12  58 SE5       30.02F WCI  19
WALKER         FAIR      14   6  70 E3        30.01F
$$
MNZ012-019>021-037-241900-
   Northeast Minnesota

CITY           SKY/WX    TMP DP  RH WIND       PRES   REMARKS
DULUTH         FAIR      23  11  60 S7        30.05F WCI  15
6HR MIN TEMP:   1; 6HR MAX TEMP:  23;

ELY            FAIR      25  12  58 SE3       30.03F
HIBBING        FAIR      19   9  65 S3        30.03F
EVELETH        FAIR      23  10  58 S8        30.05F WCI  14
DULUTH HARBOR  FAIR      19  14  79 NE5       30.12F WCI  13
TWO HARBORS    FAIR      37  25  60 CALM      30.07F
SILVER BAY     FAIR      23  18  80 S6        30.09F WCI  16
GRAND MARAIS     N/A     25  15  66 S7        30.14F WCI  17
G MARAIS ARPRT FAIR      25   9  50 SE5       30.05F WCI  19
$$
MNZ029>031-032-039>041-046>048-054>057-064-241900-
   West Central Minnesota

CITY           SKY/WX    TMP DP  RH WIND       PRES   REMARKS
FERGUS FALLS   FAIR      18   7  62 S8        29.98F WCI   7
WHEATON        LGT SNOW   9   7  92 E3        29.99F
MORRIS         CLOUDY    12  10  92 SE5       29.95F WCI   4
ALEXANDRIA     CLOUDY    18  11  74 E10       29.96F WCI   6
ELBOW LAKE     PTSUNNY   17   7  66 SE8       29.97F WCI   6
WADENA         FAIR      16   9  73 E6        29.98F WCI   7
GLENWOOD       FAIR      18  12  79 E9        29.95F WCI   6
APPLETON       LGT SNOW  10   7  85 E3        29.97F
BENSON         CLOUDY    16  12  86 SE3       29.97F
ORTONVILLE     LGT SNOW   9   7  92 CALM      29.93F VSB 1
MADISON        SNOW      10   7  85 E5        29.95F VSB 1/2 WCI   2
WILLMAR        FAIR      18  16  93 E9        29.96F WCI   6
$$
MNZ033>034-036-042>043-049>051-058-059-241900-
   Central Minnesota

CITY           SKY/WX    TMP DP  RH WIND       PRES   REMARKS
ST CLOUD       PTSUNNY   22  17  81 E5        29.99F WCI  16
6HR MIN TEMP:  -7; 6HR MAX TEMP:  22;

SAUK CENTRE    FAIR      15  13  90 NE5       29.97F WCI   8
PAYNESVILLE    CLOUDY    20  17  86 E7        29.97F WCI  11
AITKIN         FAIR      19   9  63 CALM      30.01F
PINE RIVER     FAIR      12   7  79 CALM      30.05F
BRAINERD       PTSUNNY   20   7  57 E6        30.01F WCI  12
STAPLES        FAIR      18   9  68 E5        29.99F WCI  11
LONG PRAIRIE   FAIR      18  12  79 NE5       29.99F WCI  11
LITTLE FALLS   CLOUDY    21  10  63 SE6       30.01F WCI  14
LITCHFIELD     FAIR      21  19  93 E7        29.96F WCI  13
BUFFALO        PTSUNNY   21  16  80 NE5       30.00F WCI  15
MAPLE LAKE     CLOUDY    22  19  88 E5        29.99F FOG     WCI  15
HUTCHINSON     CLOUDY    21  19  94 NE8       29.96F FOG     WCI  11
$$
MNZ037-044-045-052-053-241900-
   East Central Minnesota

CITY           SKY/WX    TMP DP  RH WIND       PRES   REMARKS
PRINCETON      FAIR      25  18  74 SE6       30.01F WCI  18
CAMBRIDGE        N/A     21  18  86 E3        30.03F
RUSH CITY      CLOUDY    23  16  74 CALM      30.04F
MOOSE LAKE     FAIR      23  12  63 CALM      30.03F
HINCKLEY       FAIR      27  19  74 E5        30.05F WCI  21
CLOQUET        FAIR      21   9  58 E3        30.04F
MCGREGOR       FAIR      25  12  58 E6        30.04F WCI  18
$$
MNZ071>073-080-081-089-090-097-098-241900-
   Southwest Minnesota

CITY           SKY/WX    TMP DP  RH WIND       PRES   REMARKS
MONTEVIDEO     LGT SNOW  12  10  92 CALM      29.94F
GRANITE FALLS  LGT SNOW  15  12  90 N3        29.95F
CANBY          SNOW      12   8  86 CALM      29.94F VSB 1/2
MARSHALL       HVY SNOW  12   9  85 NE5       29.92F VSB 1/4 WCI   4
REDWOOD FALLS  CLOUDY    18  15  88 VRB5      29.94F FOG     WCI  11
OLIVIA         CLOUDY    21  19  93 NE9       29.93F WCI  11
PIPESTONE      LGT SNOW  19  18  93 E7        29.83F VSB 1   WCI  10
WORTHINGTON    SNOW      19  18  93 NE10      29.85F VSB 1/2 WCI   8
JACKSON        LGT SNOW  16  14  93 E7        29.88F WCI   6
TRACY          LGT SNOW  13  12  92 N6        29.90F VSB 1   WCI   4
SLAYTON        LGT SNOW  19  18  96 E5        29.88F WCI  12
$$
MNZ065>067-074>077-082>085-091>093-241900-
   South Central Minnesota

CITY           SKY/WX    TMP DP  RH WIND       PRES   REMARKS
MANKATO        LGT SNOW  24  19  81 E9        29.92F WCI  14
NEW ULM        CLOUDY    16  12  86 NE7       29.92F FOG     WCI   6
ST JAMES       FLURRIES  12  10  92 CALM      29.92F
FAIRMONT       LGT SNOW  22  16  78 NE7       29.90F WCI  13
GLENCOE        CLOUDY    22  23 100 NE6       29.95F FOG     WCI  15
FARIBAULT      FAIR      21  21 100 NE9       29.93F FOG     WCI  11
OWATONNA       FAIR      27  21  80 E14       29.90F FOG     WCI  15
WASECA         CLOUDY    23  21  93 E6        29.93F FOG     WCI  16
ALBERT LEA     CLOUDY    25  25 100 E9        29.88F WCI  15
$$
MNZ078>079-086>088-094>096-241900-
   Southeast Minnesota

CITY           SKY/WX    TMP DP  RH WIND       PRES   REMARKS
ROCHESTER      CLOUDY    27  24  89 E12       29.91F FOG     WCI  17
6HR MIN TEMP:   9; 6HR MAX TEMP:  27; 6HR PCP: TRACE;

RED WING       PTSUNNY   23  19  86 SE7       29.99F FOG     WCI  15
STANTON        CLOUDY    25  23  91 E10       29.96F FOG     WCI  15
DODGE CENTER   FAIR      27  21  80 E9        29.91F FOG     WCI  17
WINONA         CLOUDY    32  27  80 SE9       29.97F WCI  24
AUSTIN         PTSUNNY   27  25  93 E15       29.88F WCI  15
PRESTON        CLOUDY    28  24  83 E12       29.92F WCI  18
$$
ABBREVIATIONS USED IN REMARKS
   TC - TEMPERATURES IN CELSIUS
  WCI - WIND CHILL INDEX
   HX - HEAT INDEX
  VSB - VISIBILITY
$$



USA.gov is the U.S. government's official web portal to all federal, state and local government web resources and services.